Location: Écuvilly
(49.6505°N, 2.9206°E)
Time: 18:33:11
(UTC+00:00)

Cosmos 2233 Rocket - Pass Details

Date: 17 November 2025
Orbit: 952 x 989 km, 82.9° (Epoch: 10 December)

Event Time Altitude Azimuth Distance (km) Brightness Sun altitude
Rises 16:59:53 0° 186° (S) 3,679 7.4 -9.3°
Reaches altitude 10° 17:02:23 10° 186° (S) 2,738 6.7 -9.7°
Maximum altitude 17:08:41 87° 98° (E) 998 4.0 -10.6°
Drops below altitude 10° 17:15:03 10° 10° (N) 2,762 6.1 -11.6°
Sets 17:17:35 0° 10° (N) 3,714 6.8 -12.0°
